Location: Rockford
(42.2710°N, 89.0940°W)
Time: 21:32:51
(UTC-05:00)

Daily predictions for brighter satellites

Satellite Brightness Start Highest point End
(mag) Time Altitude Azimuth Time Altitude Azimuth Time Altitude Azimuth
FENGYUN 3A 3.7 19:38:42 10° SSE 19:44:02 64° ENE 19:49:22 10° N
Cosmos 1833 Rocket 3.5 19:39:06 10° N 19:44:06 32° NE 19:49:05 10° ESE
Cosmos 1544 3.8 19:41:24 10° SSE 19:44:39 31° E 19:47:57 10° NNE
Lacrosse 5 2.1 19:39:46 10° SW 19:44:50 77° NW 19:49:56 10° NE
Cosmos 1605 Rocket 4.2 19:39:44 10° SSE 19:45:46 52° E 19:51:55 10° NNE
Cosmos 1437 Rocket 3.7 19:44:32 10° SSW 19:48:29 56° WNW 19:52:32 10° N
Meteor 1-22 Rocket 4.4 19:43:34 10° S 19:49:26 85° E 19:55:31 10° N
Spot 2 Rocket 3.8 19:46:43 10° SE 19:51:38 49° ENE 19:56:33 10° N
Cosmos 2278 Rocket 2.2 19:46:55 10° SSW 19:52:35 85° ESE 19:58:18 10° NNE
Cosmos 1867 4.0 19:48:33 10° S 19:53:37 41° ESE 19:58:43 10° NE
Cosmos 1470 4.3 19:52:33 10° SE 19:55:10 17° E 19:57:48 10° NE
BREEZE-M DEB (TANK) 3.9 19:55:30 10° S 19:58:19 26° ESE 20:04:43 10° ENE
ATLAS 5 CENTAUR R/B 2.6 19:55:26 10° S 19:59:22 27° ESE 20:03:33 10° ENE
Cosmos 2123 Rocket 4.0 19:53:15 10° N 19:59:37 84° E 20:05:53 10° S
SJ-6B 3.3 19:58:57 10° S 20:02:37 59° W 20:06:20 10° NNW
Timation 1 Rocket 4.4 19:57:55 10° S 20:03:49 61° ESE 20:09:46 10° NNE
Cosmos 1340 Rocket 4.2 20:02:04 10° NNE 20:05:06 20° ENE 20:07:16 14° ESE
Cosmos 2297 3.8 20:04:11 10° S 20:09:43 54° ESE 20:15:19 10° NNE
Envisat 4.0 20:05:44 11° ESE 20:09:53 28° ENE 20:14:10 10° N
H-2A R/B 2.7 20:07:24 10° SSE 20:11:18 81° ENE 20:15:16 10° N
Resurs 1-3 3.5 20:12:12 10° SSE 20:16:34 76° ENE 20:20:58 10° N
Cosmos 1125 Rocket 3.4 20:13:52 10° S 20:19:01 71° ESE 20:24:14 10° NNE
Cosmos 1408 Rocket 3.8 20:16:12 10° N 20:20:32 48° ENE 20:24:51 10° SSE
Cosmos 1048 Rocket 3.9 20:16:32 10° NNW 20:21:39 68° ENE 20:26:44 10° SSE
Cosmos 2082 Rocket 2.2 20:16:42 10° NNW 20:22:24 68° ENE 20:27:52 11° SSE
CZ-3 Stage 3 4.3 19:31:03 10° WSW 20:22:26 53° S 20:29:16 17° ESE
Geosat 4.2 20:17:38 10° NE 20:22:32 49° ESE 20:27:22 10° S
CZ-2C R/B 2.6 20:22:38 10° NNW 20:24:31 34° W 20:26:10 10° SSW
ERS-1 Rocket 4.3 20:23:18 18° E 20:25:12 22° ENE 20:28:59 10° NNE
SeaSat 1 3.0 20:20:59 10° SSE 20:25:50 59° WSW 20:30:44 10° NW
Cosmos 2061 Rocket 4.4 20:20:51 10° SSE 20:26:43 41° E 20:32:40 10° NNE
Cosmos 1758 3.4 20:25:38 10° S 20:29:35 81° W 20:33:37 10° N
Timation 2 Rocket 3.9 20:24:32 10° NNW 20:30:51 66° ENE 20:35:50 16° SE
ALOS 3.6 20:26:33 10° S 20:30:58 42° W 20:35:26 10° NNW
GPS 2-05 Rocket1 4.2 20:32:29 10° SW 20:35:29 25° S 20:36:15 23° SSE
Cosmos 1953 2.6 20:32:41 10° SSW 20:36:45 73° W 20:40:49 10° N
Cosmos 1447 Rocket 4.5 20:31:00 10° N 20:37:11 89° W 20:43:20 10° S
Cosmos 1271 Rocket 2.9 20:33:22 10° S 20:37:16 52° E 20:41:12 10° NNE
Cosmos 1459 Rocket 4.1 20:31:26 10° SSE 20:37:27 53° E 20:43:26 10° NNE
Helios 1B rocket 2.4 20:34:11 10° NNE 20:38:17 60° E 20:42:20 10° S
BREEZE-M DEB (TANK) 3.6 20:38:49 10° NW 20:40:48 24° NNE 20:41:29 21° NE
SAR-Lupe-4 3.5 20:41:13 15° SSE 20:44:04 85° WSW 20:47:41 10° NNW
Cosmos 2173 Rocket 4.0 20:38:27 10° S 20:44:28 59° E 20:50:37 10° NNE
Cosmos 1076 Rocket 4.0 20:40:53 10° NNW 20:45:04 61° W 20:49:15 10° S
Cosmos 1939 Rocket 3.3 20:44:15 32° ESE 20:45:40 45° ENE 20:49:39 10° N
Abrixas 4.0 20:43:49 10° W 20:46:14 25° SW 20:46:58 22° S
Meteor 1-29 2.9 20:43:08 10° NNE 20:46:35 59° E 20:49:25 14° S
YAOGAN 6 4.0 20:47:36 24° ENE 20:47:36 24° ENE 20:50:12 10° NNE
Spot 1 4.3 20:43:00 10° SSE 20:47:40 87° WSW 20:52:39 10° NNW
Cosmos 1674 2.7 20:44:42 10° N 20:48:30 81° W 20:51:30 16° S
SWAS 4.4 20:45:52 10° SSW 20:50:09 90° ESE 20:54:30 10° NNE
CZ-4B DEB 2.5 20:52:56 57° SSE 20:53:30 83° ENE 20:56:37 10° N
COSMOS 2487 3.3 20:51:12 10° NNW 20:54:41 50° WSW 20:56:56 19° S
Helios 1A 3.2 20:53:09 14° S 20:56:43 69° WSW 21:00:54 10° NNW
Lacrosse 5 rocket 1.1 20:53:40 10° NW 20:57:35 71° NE 20:58:14 56° ESE
Cosmos 2251 Rocket 3.9 20:54:53 10° N 21:00:02 46° ENE 21:01:25 38° ESE
Meteor 2-17 Rocket 4.5 20:54:50 10° SSE 21:00:48 56° E 21:06:48 10° NNE
ISS -3.9 20:59:00 10° SW 21:02:04 77° SSW 21:02:04 77° SSW
USA 186 3.3 21:04:49 22° WSW 21:04:58 22° W 21:06:49 10° NW
Cosmos 1766 Rocket 4.4 21:02:08 10° NNW 21:06:30 51° W 21:10:49 10° S
GP-B 3.8 21:03:16 10° SSW 21:07:37 55° W 21:12:00 10° N
CZ-3B DEB 4.0 21:02:06 10° W 21:10:17 34° NNW 21:14:27 10° NE
Cosmos-2242 3.7 21:08:45 10° SSW 21:12:55 54° W 21:17:07 10° N
Cosmos 2369 Rocket 4.3 21:18:38 11° NE 21:18:38 11° NE 21:18:55 10° NE
Resurs 01 Rocket 4.0 21:11:53 10° SW 21:15:18 22° W 21:18:44 10° NW
Cosmos 2016 Rocket 3.8 21:10:14 10° S 21:16:26 75° E 21:22:35 10° N
USA 215 3.2 21:13:02 10° NE 21:19:30 62° SE 21:25:57 10° SW
MetOp-B 4.4 21:23:52 47° ENE 21:24:01 47° ENE 21:29:09 10° N
Cosmos 1725 Rocket 3.9 21:23:25 42° SSE 21:25:22 61° E 21:31:28 10° NNE
Cosmos 1356 Rocket 3.4 21:23:35 10° N 21:27:16 70° N 21:27:16 70° N
Cosmos 1833 Rocket 3.8 21:22:53 10° NW 21:28:06 39° WSW 21:31:55 17° SSW
Lacrosse 5 4.1 21:24:33 10° WNW 21:28:32 23° NNW 21:32:32 10° NNE
Cosmos 1470 4.5 21:27:22 10° SW 21:31:00 33° WNW 21:34:37 10° N
SPOT 5 3.5 21:33:35 48° ENE 21:33:35 48° ENE 21:38:22 10° N
NOAA 11 4.2 21:34:16 57° ENE 21:34:20 58° ENE 21:39:44 10° N
Cosmos 494 Rocket 3.8 21:32:34 10° NNW 21:37:42 83° WSW 21:38:10 73° S
Cosmos 1743 Rocket 4.3 21:33:31 10° NNW 21:37:49 50° W 21:38:55 40° SW
H-2A R/B 4.5 21:40:22 12° NNE 21:40:22 12° NNE 21:40:45 10° NNE
SL-08 R/B 4.5 21:33:42 20° S 21:38:22 88° W 21:44:50 10° N
Cosmos 1500 Rocket 3.7 21:34:55 10° NNW 21:39:09 67° W 21:39:09 67° W
ATLAS 5 CENTAUR R/B 3.1 21:39:20 10° WSW 21:43:48 40° NW 21:48:42 10° NNE
Tsikada Rocket 3.8 21:38:30 10° N 21:44:45 81° E 21:45:44 65° SSE
Terra 4.0 21:47:55 15° NNE 21:47:55 15° NNE 21:49:05 10° NNE
Envisat 4.3 21:45:57 21° SSW 21:48:44 36° W 21:53:25 10° NNW
USA 267 3.8 21:50:51 40° ENE 21:52:15 45° NNE 21:58:24 10° NW
Cosmos 2058 4.3 21:55:12 10° NNW 21:57:44 35° NNW 21:57:44 35° NNW
H-2A R/B 3.2 22:02:15 35° NNE 22:02:15 35° NNE 22:05:40 10° N
ERS-1 Rocket 3.7 22:03:18 47° WSW 22:03:38 48° W 22:08:31 10° NNW
MOS 1-B Rocket 4.5 22:04:48 63° E 22:05:16 64° ENE 22:12:08 10° N
MetOp-A 4.4 22:10:20 63° WNW 22:10:20 63° WNW 22:15:16 10° NNW
ARGOS 3.6 22:14:10 58° NNW 22:14:10 58° NNW 22:18:27 10° NNW
Cosmos 2233 Rocket 4.3 22:31:21 62° NW 22:31:21 62° NW 22:36:45 10° N
Cosmos 2369 Rocket 3.9 23:00:18 28° N 23:00:18 28° N 23:03:19 10° NNE
USA 215 4.1 22:56:12 10° NE 23:02:22 46° NNW 23:08:31 10° W
Lacrosse 5 4.5 23:10:19 10° NNW 23:13:00 15° N 23:13:00 15° N
